Вернуться в каталог

DELTA 1 DEB

АктивенSSO
NORAD 21370·DEBRIS·🇺🇸 United States

Запущен Jun 12, 1975 с Vandenberg Space Force Base

Loading…

Ближайшие Пролёты (ближайшие 24 часа)

TLE

СвежийSource: Space-Track

Эпоха: Sep 13, 2026, 19:30 UTC

1 21370U 75052CQ  26256.81263256  .00000030  00000-0  15807-3 0  9993
2 21370  99.9315  13.8674 0079433 345.8409 168.5182 13.28196152711489

Отслеживайте DELTA 1 DEB в реальном времени с AllMySat

Download on the App Store